Погода Богородицкое

Погода Богородицкое : погода сейчас, прогноз погоды и архив. Всё, что Вы хотите узнать о погоде Богородицкое!

Поиск расширенной информации на нашем сайте:

Другие новости

Новости СМИ2

Главная страница сайта

Новости сайта

03.07.2017

Напоминаем, что на нашем специализированном сайте Метеоцентр.Азия вы можете получить высокодетализированные автоматические прогнозы погоды по пунктам России, СНГ и мира в авиационном формате (включающие направление и скорость ветра, видимость, явления погоды, количество и форму облачности, нижнюю и верхнюю границу облачности).

Рекомендуем: Пожелаю всем кушать Super P-force в объёмах, которыми я ем.

Погода Богородицкое - сегодня

Время (UTC), дата Ветер
(°,м/с) 
Видим.   Явления Облачность Т
(°С)
Тd
(°С)
f(%) Тe
(°С)
Pmin
(гПа)
dP
(гПа)
Po
(мм)
O2
(г/м3)
Тmin Tmax R s Состояние
почвы
09 20.01.18 220 (ЮЗ) 5{10}  10 км    10/0 средняя 
[As op]
-0.9 -2.8 87 -4    0.9  738  299           
12 20.01.18 210 (ЮЗ) 20000 м    10/10 2000 м 
[Ac und]
-0.8 -3.3 83 -3  1012.9  0.3  739  299           
15 20.01.18 180 (Ю) 10 км    9/9 2000 м средняя 
[Ac trans]
-2.2 -4 87 -2  1013.5  0.4  739  301           
18 20.01.18 200 (Ю) 10 км    10/10 2000 м 
[Ac und]
-0.9 -2.5 89 1012.9  -0.4  739  299    -0.2       
21 20.01.18 170 (Ю) 10 км  слаб. снег  10/10 500 м 
[Frnb|Ns]
-1 -2 93 1012.2  -0.7  738  299           
00 21.01.18 тихо ()   4000 м  снег  10/10 480 м 
[Frnb|Ns]
-1.9 -2.7 94 -2  1010.7  -1.5  737  299           
03 21.01.18 040 (СВ) 10 км  слаб. снег  10/10 500 м 
[Frnb|Ns]
-2.4 -3.3 94 -2  1008.9  -1.8  736  299  -2.6       
06 21.01.18 360 (С) 20000 м  слаб. снег  10/10 480 м 
[Frnb|Ns]
-3.5 -4.6 92 -5  1008.4  -0.7  735  300  -3.7    20  равномерный
сухой снег
100% 
09 21.01.18 350 (С) 4000 м  слаб. снег  10/10 450 м 
[Frnb|Ns]
-4.2 -5.8 89 -7  1007.5  -1  734  301           
12 21.01.18 320 (СЗ) 4000 м  слаб. снег  10/10 480 м 
[Frnb|Ns]
-3.9 -5.8 87 -7  1008  0.5  735  301           
15 21.01.18 300 (СЗ) 10 км  {снег}  6/6 2000 м средняя 
[Ac trans]
-5.6 -8.6 79 -9  1010.6  2.4  736  304         
18 21.01.18 280 (З) 10 км  {снег}  9/9 2000 м средняя 
[Ac trans]
-5.1 -8.3 78 -7  1013  2.4  738  304    -3.5     
21 21.01.18 250 (З) 10 км    8/8 2000 м средняя 
[Ac trans]
-7.4 -9.5 85 -11  1016.3  740  308           
00 22.01.18 290 (З) 10 км    6/6 2000 м средняя 
[Ac trans]
-7.1 -8 93 -9  1017.4  1.1  741  307           
03 22.01.18 300 (СЗ) 4000 м  дымка  10/10 500 м 
[St]
-8.7 -9.4 95 -12  1018.6  742  310  -9.3         
06 22.01.18 тихо ()   4000 м  дымка  10/10 540 м 
[St]
-7.8 -8.8 93 -8  1018.7  0.1  742  309  -9.3      22  равномерный
сухой снег
100% 
09 22.01.18 100 (В) 10 км    10/10 570 м 
[St]
-6.8 -8 91 -6  1019.8  1.2  743  308           
12 22.01.18 330 (СЗ) 20000 м    10/10 660 м 
[St]
-6.4 -8 88 -6  1019.9  0.2  743  307           
15 22.01.18 340 (С) 10 км    10/10 630 м 
[St]
-7.3 -9 88 -10  1020.1  0.1  743  309           
18 22.01.18 060 (СВ) 10 км    10/10 630 м 
[St]
-6.8 -8.4 88 -8  1020.6  0.5  744  308    -5.9       
21 22.01.18 050 (СВ) 10 км    10/10 570 м 
[St]
-6.6 -8.2 88 -10  1020.2  -0.3  743  308           
00 23.01.18 050 (СВ) 4000 м  слаб. снег  10/10 540 м 
[Frnb|Ns]
-6.2 -7.7 89 -10  1019.8  -0.4  743  307           
03 23.01.18 050 (СВ) 4000 м  слаб. снег  10/10 500 м 
[Frnb|Ns]
-6 -7.5 89 -10  1019.3  -0.5  743  307  -7.5       
06 23.01.18 040 (СВ) 4000 м  слаб. снег  10/10 480 м 
[Frnb|Ns]
-6.5 -8.1 88 -11  1019.7  0.4  743  308  -6.9    24  равномерный
сухой снег
100% 
09 23.01.18 030 (СВ) 6{10}  4000 м  слаб. снег  10/10 480 м 
[Frnb|Ns]
-6.4 -8 88 -11  1020.3  0.6  743  308           
Время (UTC), дата Ветер
(°,м/с) 
Видим.   Явления Облачность Т
(°С)
Тd
(°С)
f(%) Тe
(°С)
Pmin
(гПа)
dP
(гПа)
Po
(мм)
O2
(г/м3)
Тmin Tmax R s Состояние
почвы

Для получения пояснительной информации подведите курсор к названию столбца.

ПОГОДА Богородицкое - архив

Всё, что Вы хотите узнать о погоде Богородицкое - удобно и подробно!

Выберите нужную дату (начиная с 1 января 2015* года) и нажмите кнопку "Найти".
Будут отображены архивные сводки погоды по пункту Богородицкое, начиная с указанной даты.


Отображать данные в формате CSV (для использования в таблицах Excel)


Внимание! Наш архив погоды предназначен исключительно для личного некоммерческого использования в познавательных целях. Если Вам необходимы официальные справки о состоянии погоды (для производственных, юридических, коммерческих и т.п. целей), обращайтесь в органы Росгидромета.

*Примечание: данная дата относится к архиву по метеостанциям СССР (Россия, СНГ, Балтия).
Архив по метеостанциям Зарубежной Европы и Азии (кроме Китая) хранится 10 дней, по другим регионам земного шара (Китай, Африка, Америка, Австралия, Океания) - 1 день.

Богородицкое - район местоположения метеостанции


Название, широта, долгота, высота метеостанции:
Богородицкое 51.17°ш. 37.35°д. 226 м над ур. моря [Российская Федерация]

Дополнительная информация

В oтличие oт бoльшинства пoгoдных сайтoв мы публикуем пoдрoбную метеoинфoрмацию в детальнoм прoфессиoнальнoм фoрмате.

Характеристики температуры и влажнoсти вoздуха измеряются на высoте 2 м в тени вдали oт зданий и деревьев.
Скoрoсть ветра измеряется на высoте 10 м (на урoвне рoста челoвека скoрoсть ветра ниже в 1.5-2 раза). Если метеoстанция нахoдится в гoрoде или в лесу, тo скoрoсть ветра занижена на 2-4 м/с пo сравнению с oткрытым местoм. Скoрoсть ветра над акватoриями крупных рек и oзёр, а также на вершинах хoлмoв на 2-5 м/с выше, чем в oбычных услoвиях.
Атмoсфернoе давление в разных тoчках местнoсти мoжет значительнo oтличаться oт давления на метеoстанции, в зависимoсти oт услoвий рельефа (при пoдъёме на 10 м давление пoнижается примернo на 1 мм рт.ст.).